SCP
0 0 -0 -0 -0 -0 -0 -0 -0 0 0 0 0 0 0 0 0 0 0 0 0 0 0 0 0 0 0 0 0 0 0 0 0 0 0 0 0 0 0 0 -0 -0 -0
0 0 0 -0 -0 -0 -0 -0 -0 -0 0 0 0 0 0 0 0 0 0 0 0 0 0 0 0 0 0 0 0 0 0 0 0 0 0 0 0 0 0 0 -0 -0 -0
0 0 0 0 0 0 0 -0 0 0 0 0 0 0 0 0 0 0 0 0 0 0 0 0 0 0 0 0 0 0 0 0 0 0 0 0 0 0 0 -0 -0 -0 0
0 0 0 0 0 0 0 0 0 0 0 0 0 0 0 0 0 0 0 0 0 0 0 0 0 0 0 0 0 0 0 0 0 0 0 0 0 0 0 0 -0 -0 -0
0 0 0 0 0 0 0 0 0 0 0 0 0 0 0 0 0 0 0 0 0 0 0 0 0 0 0 0 0 0 0 0 0 0 0 0 0 0 0 0 -0 0 0
0 0 0 0 0 0 0 0 0 0 0 0 0 0 0 0 0 0 0 0 0 0 0 0 0 0 0 0 0 0 0 0 0 0 0 0 0 0 0 0 -0 0 0
0 0 0 0 0 0 0 0 0 0 0 0 0 0 0 0 0 0 0 0 0 0 0 0 0 0 0 0 0 0 0 0 0 0 0 0 0 0 0 0 0 0 0
0 0 0 0 0 0 0 0 0 0 0 0 0 0 0 0 0 0 0 0 0 0 0 0 0 0 0 0 0 0 0 0 0 0 0 0 0 0 0 -0 0 0 0
0 0 0 0 0 0 0 0 0 0 0 0 0 0 0 0 0 0 0 0 0 0 0 0 0 0 0 0 0 0 0 0 0 0 0 0 0 0 0 -0 0 0 0
0 0 0 0 0 0 0 0 0 0 0 0 0 0 0 0 0 0 0 0 0 0 0 0 0 0 0 0 0 0 0 0 0 0 0 0 0 0 0 0 0 0 0
0 0 0 0 0 0 0 0 0 0 0 0 0 0 0 0 0 0 0 0 0 0 0 0 0 0 0 0 0 0 0 0 0 0 0 0 0 0 0 0 0 0 0
0 0 0 0 0 0 0 0 0 0 0 0 0 0 0 0 0 0 0 0 0 0 0 0 0 0 0 0 0 0 0 0 0 0 0 0 0 0 0 0 0 0 0
0 0 0 0 0 0 0 0 -0 -0 0 0 0 0 0 0 0 0 0 0 0 0 0 0 0 0 0 0 0 0 0 0 0 0 0 0 0 0 0 0 0 0 0
0 0 0 0 0 0 0 -0 -0 -0 -0 0 0 0 0 0 0 0 0 0 0 0 0 0 0 0 1 0 0 0 0 0 0 0 0 0 0 0 0 0 0 0 0
0 0 0 0 0 0 0 -0 -0 -0 -0 -0 0 0 0 0 0 0 0 0 0 0 0 0 0 0 0 1 1 0 0 0 0 0 0 0 0 0 0 0 0 0 0
0 0 0 0 0 0 -0 -0 -0 -0 -0 -0 0 0 0 0 0 0 0 0 0 0 0 0 0 0 0 1 0 0 0 0 0 0 0 0 0 0 0 0 0 0 0
0 0 0 0 0 -0 -0 -0 -0 -0 -0 -0 0 0 0 0 0 0 0 0 0 0 0 0 0 0 0 0 0 0 0 0 0 0 0 0 0 0 0 0 0 0 0
0 0 0 0 0 -0 -0 -0 -0 -0 -0 0 0 0 0 0 0 0 0 0 0 0 0 0 0 0 0 0 0 0 0 0 0 0 0 0 0 0 0 0 0 0 0
0 0 0 0 -0 -0 -0 -0 -0 -0 0 0 0 0 0 0 0 0 0 0 0 0 0 0 0 0 0 0 0 0 0 0 0 0 0 0 0 0 0 0 0 0 0
0 0 0 0 -0 -0 -0 -0 -0 -0 0 0 0 0 0 0 0 0 0 0 0 0 0 0 0 0 0 0 0 0 0 0 0 0 0 0 0 0 0 0 0 0 0
0 0 0 0 -0 -0 -0 -0 -0 0 0 0 0 0 0 0 0 0 0 0 0 0 0 0 0 0 0 0 0 0 0 0 0 0 0 0 0 0 0 0 0 0 0
0 0 0 0 0 -0 -0 -0 0 0 0 0 0 0 0 0 0 0 0 0 0 0 0 0 0 0 0 0 0 0 0 0 0 0 0 0 0 0 0 0 0 0 0
0 0 0 0 0 0 0 0 0 0 0 0 0 0 0 0 0 0 0 0 0 0 0 0 0 0 0 0 0 0 0 0 0 0 0 0 0 0 0 0 0 0 0
0 0 0 0 0 0 0 0 -0 0 0 0 0 0 0 0 0 0 0 0 0 0 0 0 0 0 0 0 0 0 0 0 0 0 0 0 0 0 0 0 0 0 0
0 0 0 0 0 0 0 0 0 0 0 0 0 0 0 0 0 0 0 0 0 0 0 0 0 0 0 0 0 0 1 0 0 0 0 0 0 0 0 0 0 0 0
0 0 0 0 0 0 0 0 0 0 0 0 0 0 0 0 0 0 0 0 0 0 0 0 0 0 0 0 0 0 0 0 0 0 0 0 0 0 0 0 0 0 0
Wind_Speed_500mb
16 19 22 21 11 7 4 6 7 12 9 8 8 12 13 14 16 14 14 14 16 16 17 20 21 22 23 22 20 18 16 13 13 12 10 11 10 12 39 42 40 36 34
21 20 17 13 15 11 11 7 11 13 14 17 16 15 16 18 21 20 20 21 22 22 21 23 25 26 25 22 20 18 18 18 19 19 16 11 2 27 40 40 34 32 32
13 19 20 17 11 9 14 15 14 16 19 19 19 21 20 21 24 25 24 25 27 27 27 27 27 29 27 26 24 24 23 24 24 20 14 10 11 35 38 36 31 27 29
11 16 20 23 19 16 19 15 19 22 21 24 26 24 24 25 24 25 25 26 29 29 29 30 28 29 30 30 31 30 28 26 24 20 18 15 23 38 37 33 29 27 35
9 15 19 22 22 19 19 23 18 20 27 29 27 29 29 26 26 24 23 26 27 31 33 33 34 33 31 31 31 31 30 28 26 22 20 18 34 42 38 33 28 31 36
9 14 18 22 24 25 24 24 25 22 22 25 33 36 33 32 31 28 26 27 28 30 34 35 35 35 32 31 30 31 31 30 28 28 23 23 39 46 40 35 30 33 34
9 16 22 27 30 31 32 32 32 31 30 28 30 35 41 40 36 34 33 32 32 34 37 38 39 37 34 30 27 27 31 30 30 28 19 27 43 50 42 36 33 35 34
17 22 26 30 33 36 37 37 38 41 39 38 37 35 36 42 41 40 42 41 39 39 41 42 42 41 37 32 29 28 31 29 23 14 14 24 45 50 42 37 33 34 34
23 27 29 30 30 30 30 32 35 38 43 46 44 46 45 40 44 49 51 49 48 47 46 46 45 45 43 37 35 33 36 34 26 17 13 23 51 50 41 38 33 34 36
23 27 28 25 21 23 28 35 39 40 42 47 50 50 51 52 46 49 56 57 57 56 53 51 50 50 49 44 41 40 39 38 33 28 23 22 52 49 40 43 39 36 38
21 22 20 16 19 27 37 45 49 50 49 47 50 54 54 55 56 53 52 61 63 62 62 57 55 54 54 50 49 47 46 48 39 39 31 24 53 55 40 41 40 36 40
17 21 21 23 28 36 51 60 63 61 60 55 52 53 56 58 59 61 59 55 63 68 67 65 60 60 57 59 56 55 57 55 51 47 37 30 44 64 52 44 44 49 46
20 21 24 28 34 43 57 71 77 74 68 62 58 56 56 58 61 63 66 65 57 64 73 68 66 64 65 65 65 63 66 63 59 56 47 35 42 63 67 57 48 50 54
21 23 29 35 41 54 73 79 80 77 73 68 62 61 60 60 60 63 67 68 68 60 64 74 70 68 68 68 70 69 71 71 67 64 55 43 46 54 63 71 64 55 55
29 30 35 38 45 61 74 79 84 84 78 73 67 61 63 63 62 62 66 68 71 68 65 65 67 69 71 72 73 77 76 77 73 68 64 53 49 54 57 64 67 66 61
30 32 37 42 52 66 75 82 87 86 79 75 72 68 63 64 63 64 66 68 71 71 68 70 71 66 66 74 79 81 83 82 79 73 71 62 56 55 60 65 66 60 59
31 35 40 48 60 71 81 89 90 84 79 76 75 70 67 62 63 63 65 68 70 72 73 70 76 66 83 59 84 85 87 89 85 80 76 71 63 60 59 66 65 59 58
34 36 42 53 64 75 83 87 84 81 79 75 74 73 67 64 62 63 64 65 68 70 74 76 74 79 76 73 92 96 95 94 93 88 82 78 72 66 63 66 68 65 63
33 38 47 58 69 78 83 79 75 73 73 74 73 71 68 61 59 60 62 63 61 68 72 75 77 75 82 79 73 77 93 98 101 94 89 85 80 72 69 67 69 69 70
34 41 52 62 69 74 77 79 79 76 73 70 68 67 67 63 57 58 59 59 59 64 70 74 75 75 72 74 87 80 77 95 99 98 95 91 86 79 72 70 70 72 72
36 47 57 66 68 72 79 83 85 84 81 75 69 65 61 63 59 55 57 57 55 61 66 69 74 73 79 74 58 73 69 98 95 89 92 98 91 83 78 75 70 72 74
42 52 61 65 67 72 76 79 82 86 84 80 74 66 56 54 54 53 51 56 56 59 63 66 70 76 79 75 67 50 56 44 103 94 95 98 98 87 85 79 73 70 73
45 56 63 64 68 73 74 78 80 82 82 80 63 66 60 54 53 51 52 55 58 59 63 65 68 73 78 77 74 61 25 33 51 82 93 98 92 92 92 85 78 71 68
50 59 62 65 69 73 75 80 80 81 83 76 70 64 58 57 56 53 52 51 56 58 58 64 68 75 69 69 75 80 82 58 34 35 72 78 87 78 71 91 88 77 67
53 64 64 66 70 72 75 78 80 79 77 73 62 58 61 55 52 53 54 51 54 55 63 68 72 74 69 68 71 81 70 75 74 38 37 77 80 77 66 80 93 85 72
56 67 63 67 71 72 75 78 76 75 72 69 62 61 59 56 48 47 51 48 46 55 66 67 68 73 70 69 73 74 78 70 82 52 42 69 79 68 61 70 90 95 77
Wind_Direction_500mb
25 18 3 350 331 347 314 214 199 195 234 264 258 248 249 252 252 243 240 239 238 229 225 223 215 208 205 213 213 222 231 238 255 270 290 308 320 151 139 137 143 142 140
28 19 13 360 310 316 288 237 224 223 227 229 235 246 255 256 257 255 254 250 248 243 238 230 225 221 226 218 224 233 244 248 257 271 274 273 234 154 149 147 146 150 150
30 24 21 27 6 326 3 253 244 237 235 240 250 242 243 251 261 264 259 256 251 244 239 233 229 234 232 239 252 254 253 262 263 257 249 223 172 161 157 152 151 153 159
28 14 16 21 16 351 352 336 274 255 249 243 241 244 249 251 257 263 267 260 250 242 238 238 239 240 243 251 258 259 254 253 259 246 242 228 184 170 166 163 157 156 162
354 357 359 359 3 357 341 341 331 300 276 278 258 244 244 246 250 256 264 267 253 244 238 239 243 253 252 254 256 255 250 243 247 245 247 227 186 178 180 175 169 166 172
343 348 349 346 343 339 334 326 323 315 300 284 274 276 257 242 242 239 243 253 256 244 239 240 246 249 244 252 256 246 236 235 241 249 256 221 188 182 183 184 181 176 179
327 331 332 333 332 330 325 321 316 310 304 301 282 276 277 267 250 242 238 240 245 247 243 242 242 241 246 249 246 235 230 235 243 249 236 215 187 184 185 191 190 186 186
330 331 327 323 321 322 323 320 314 309 302 297 290 288 277 271 265 255 246 239 239 242 244 246 245 242 241 248 239 232 221 219 216 220 231 206 186 184 189 196 193 195 193
321 322 324 327 327 326 325 320 314 307 300 294 290 285 275 274 262 256 260 248 242 240 242 243 244 245 242 241 236 231 214 205 217 229 244 212 187 188 192 200 200 200 203
315 320 326 330 334 337 337 335 330 320 308 301 293 287 282 274 267 258 251 251 247 244 242 241 242 243 245 239 235 230 221 211 219 223 233 219 195 194 194 200 202 201 201
305 311 315 317 327 339 343 339 335 329 319 307 297 291 285 279 272 264 260 252 246 246 244 242 241 241 242 241 235 232 226 222 225 226 230 225 202 201 202 197 200 210 214
305 315 312 311 319 329 336 334 329 325 321 313 304 294 287 281 274 269 261 258 254 245 244 243 242 241 239 239 236 231 229 229 227 229 227 227 210 208 206 203 199 211 224
289 296 299 296 305 319 328 328 326 322 318 311 305 299 290 282 276 269 264 259 256 254 246 241 242 241 238 236 235 233 230 229 232 230 229 224 217 211 215 215 211 209 217
287 297 308 310 315 325 329 328 327 322 316 310 304 299 293 285 277 270 265 260 255 252 251 244 240 239 239 238 237 234 233 231 232 230 230 228 218 214 219 224 226 225 221
281 291 303 310 318 326 329 329 325 323 316 310 304 299 294 288 281 273 266 260 257 251 248 244 240 240 239 239 238 236 234 232 233 234 231 229 225 222 221 223 226 230 233
274 289 304 312 319 324 326 326 323 318 312 307 304 300 294 288 281 275 268 262 256 253 247 244 239 236 239 243 239 239 237 234 233 234 233 230 230 229 229 222 224 226 227
274 292 304 313 321 323 322 322 319 313 309 305 303 299 293 287 281 275 270 264 259 253 250 246 243 238 235 236 246 242 238 236 233 233 234 230 230 232 228 221 222 224 225
274 292 305 313 319 322 321 318 315 311 307 303 301 298 294 289 282 275 271 267 264 257 251 248 247 243 238 242 240 247 242 238 235 233 234 231 229 232 229 223 225 225 225
283 299 310 319 326 325 323 320 315 311 308 306 302 298 293 287 282 275 270 268 265 262 255 250 248 250 246 240 234 240 242 242 235 233 233 232 230 231 231 231 230 229 226
289 308 320 326 328 328 327 323 318 316 311 306 302 297 291 285 280 275 269 268 267 263 261 253 250 248 251 252 246 247 244 237 232 230 233 232 229 229 231 233 234 234 232
301 314 321 323 326 327 326 326 322 318 315 309 302 294 288 285 283 274 269 267 266 264 260 258 252 248 246 243 252 248 256 245 246 238 238 235 230 227 230 232 235 235 232
304 314 318 319 322 325 325 326 322 318 314 309 303 295 287 284 284 279 273 270 266 265 262 258 253 251 247 243 241 251 240 235 229 237 242 239 232 229 230 230 234 236 235
304 312 315 316 321 321 320 322 321 316 312 310 303 296 292 285 280 275 270 271 269 267 263 259 253 247 249 243 234 227 217 214 212 218 228 237 231 231 231 230 229 234 235
310 315 313 316 320 319 317 322 321 317 311 307 299 296 291 289 287 282 278 271 269 267 263 262 254 247 244 245 239 227 235 243 208 198 219 234 240 234 237 234 228 227 232
313 319 314 314 319 316 317 319 317 313 308 304 298 291 291 291 288 283 282 277 269 263 263 266 258 247 240 238 239 232 236 238 231 195 202 212 224 233 245 240 234 234 230
316 318 312 315 318 317 317 318 316 311 308 302 293 290 289 292 291 290 292 283 278 272 272 268 257 246 238 235 234 235 225 233 241 223 212 219 219 223 227 235 234 227 228
Wind_Speed_850mb
16 19 22 21 11 7 4 6 7 12 9 8 8 12 13 14 16 14 14 14 16 16 17 20 21 22 23 22 20 18 16 13 13 12 10 11 10 12 39 42 40 36 34
21 20 17 13 15 11 11 7 11 13 14 17 16 15 16 18 21 20 20 21 22 22 21 23 25 26 25 22 20 18 18 18 19 19 16 11 2 27 40 40 34 32 32
13 19 20 17 11 9 14 15 14 16 19 19 19 21 20 21 24 25 24 25 27 27 27 27 27 29 27 26 24 24 23 24 24 20 14 10 11 35 38 36 31 27 29
11 16 20 23 19 16 19 15 19 22 21 24 26 24 24 25 24 25 25 26 29 29 29 30 28 29 30 30 31 30 28 26 24 20 18 15 23 38 37 33 29 27 35
9 15 19 22 22 19 19 23 18 20 27 29 27 29 29 26 26 24 23 26 27 31 33 33 34 33 31 31 31 31 30 28 26 22 20 18 34 42 38 33 28 31 36
9 14 18 22 24 25 24 24 25 22 22 25 33 36 33 32 31 28 26 27 28 30 34 35 35 35 32 31 30 31 31 30 28 28 23 23 39 46 40 35 30 33 34
9 16 22 27 30 31 32 32 32 31 30 28 30 35 41 40 36 34 33 32 32 34 37 38 39 37 34 30 27 27 31 30 30 28 19 27 43 50 42 36 33 35 34
17 22 26 30 33 36 37 37 38 41 39 38 37 35 36 42 41 40 42 41 39 39 41 42 42 41 37 32 29 28 31 29 23 14 14 24 45 50 42 37 33 34 34
23 27 29 30 30 30 30 32 35 38 43 46 44 46 45 40 44 49 51 49 48 47 46 46 45 45 43 37 35 33 36 34 26 17 13 23 51 50 41 38 33 34 36
23 27 28 25 21 23 28 35 39 40 42 47 50 50 51 52 46 49 56 57 57 56 53 51 50 50 49 44 41 40 39 38 33 28 23 22 52 49 40 43 39 36 38
21 22 20 16 19 27 37 45 49 50 49 47 50 54 54 55 56 53 52 61 63 62 62 57 55 54 54 50 49 47 46 48 39 39 31 24 53 55 40 41 40 36 40
17 21 21 23 28 36 51 60 63 61 60 55 52 53 56 58 59 61 59 55 63 68 67 65 60 60 57 59 56 55 57 55 51 47 37 30 44 64 52 44 44 49 46
20 21 24 28 34 43 57 71 77 74 68 62 58 56 56 58 61 63 66 65 57 64 73 68 66 64 65 65 65 63 66 63 59 56 47 35 42 63 67 57 48 50 54
21 23 29 35 41 54 73 79 80 77 73 68 62 61 60 60 60 63 67 68 68 60 64 74 70 68 68 68 70 69 71 71 67 64 55 43 46 54 63 71 64 55 55
29 30 35 38 45 61 74 79 84 84 78 73 67 61 63 63 62 62 66 68 71 68 65 65 67 69 71 72 73 77 76 77 73 68 64 53 49 54 57 64 67 66 61
30 32 37 42 52 66 75 82 87 86 79 75 72 68 63 64 63 64 66 68 71 71 68 70 71 66 66 74 79 81 83 82 79 73 71 62 56 55 60 65 66 60 59
31 35 40 48 60 71 81 89 90 84 79 76 75 70 67 62 63 63 65 68 70 72 73 70 76 66 83 59 84 85 87 89 85 80 76 71 63 60 59 66 65 59 58
34 36 42 53 64 75 83 87 84 81 79 75 74 73 67 64 62 63 64 65 68 70 74 76 74 79 76 73 92 96 95 94 93 88 82 78 72 66 63 66 68 65 63
33 38 47 58 69 78 83 79 75 73 73 74 73 71 68 61 59 60 62 63 61 68 72 75 77 75 82 79 73 77 93 98 101 94 89 85 80 72 69 67 69 69 70
34 41 52 62 69 74 77 79 79 76 73 70 68 67 67 63 57 58 59 59 59 64 70 74 75 75 72 74 87 80 77 95 99 98 95 91 86 79 72 70 70 72 72
36 47 57 66 68 72 79 83 85 84 81 75 69 65 61 63 59 55 57 57 55 61 66 69 74 73 79 74 58 73 69 98 95 89 92 98 91 83 78 75 70 72 74
42 52 61 65 67 72 76 79 82 86 84 80 74 66 56 54 54 53 51 56 56 59 63 66 70 76 79 75 67 50 56 44 103 94 95 98 98 87 85 79 73 70 73
45 56 63 64 68 73 74 78 80 82 82 80 63 66 60 54 53 51 52 55 58 59 63 65 68 73 78 77 74 61 25 33 51 82 93 98 92 92 92 85 78 71 68
50 59 62 65 69 73 75 80 80 81 83 76 70 64 58 57 56 53 52 51 56 58 58 64 68 75 69 69 75 80 82 58 34 35 72 78 87 78 71 91 88 77 67
53 64 64 66 70 72 75 78 80 79 77 73 62 58 61 55 52 53 54 51 54 55 63 68 72 74 69 68 71 81 70 75 74 38 37 77 80 77 66 80 93 85 72
56 67 63 67 71 72 75 78 76 75 72 69 62 61 59 56 48 47 51 48 46 55 66 67 68 73 70 69 73 74 78 70 82 52 42 69 79 68 61 70 90 95 77
Wind_Direction_850mb
25 18 3 350 331 347 314 214 199 195 234 264 258 248 249 252 252 243 240 239 238 229 225 223 215 208 205 213 213 222 231 238 255 270 290 308 320 151 139 137 143 142 140
28 19 13 360 310 316 288 237 224 223 227 229 235 246 255 256 257 255 254 250 248 243 238 230 225 221 226 218 224 233 244 248 257 271 274 273 234 154 149 147 146 150 150
30 24 21 27 6 326 3 253 244 237 235 240 250 242 243 251 261 264 259 256 251 244 239 233 229 234 232 239 252 254 253 262 263 257 249 223 172 161 157 152 151 153 159
28 14 16 21 16 351 352 336 274 255 249 243 241 244 249 251 257 263 267 260 250 242 238 238 239 240 243 251 258 259 254 253 259 246 242 228 184 170 166 163 157 156 162
354 357 359 359 3 357 341 341 331 300 276 278 258 244 244 246 250 256 264 267 253 244 238 239 243 253 252 254 256 255 250 243 247 245 247 227 186 178 180 175 169 166 172
343 348 349 346 343 339 334 326 323 315 300 284 274 276 257 242 242 239 243 253 256 244 239 240 246 249 244 252 256 246 236 235 241 249 256 221 188 182 183 184 181 176 179
327 331 332 333 332 330 325 321 316 310 304 301 282 276 277 267 250 242 238 240 245 247 243 242 242 241 246 249 246 235 230 235 243 249 236 215 187 184 185 191 190 186 186
330 331 327 323 321 322 323 320 314 309 302 297 290 288 277 271 265 255 246 239 239 242 244 246 245 242 241 248 239 232 221 219 216 220 231 206 186 184 189 196 193 195 193
321 322 324 327 327 326 325 320 314 307 300 294 290 285 275 274 262 256 260 248 242 240 242 243 244 245 242 241 236 231 214 205 217 229 244 212 187 188 192 200 200 200 203
315 320 326 330 334 337 337 335 330 320 308 301 293 287 282 274 267 258 251 251 247 244 242 241 242 243 245 239 235 230 221 211 219 223 233 219 195 194 194 200 202 201 201
305 311 315 317 327 339 343 339 335 329 319 307 297 291 285 279 272 264 260 252 246 246 244 242 241 241 242 241 235 232 226 222 225 226 230 225 202 201 202 197 200 210 214
305 315 312 311 319 329 336 334 329 325 321 313 304 294 287 281 274 269 261 258 254 245 244 243 242 241 239 239 236 231 229 229 227 229 227 227 210 208 206 203 199 211 224
289 296 299 296 305 319 328 328 326 322 318 311 305 299 290 282 276 269 264 259 256 254 246 241 242 241 238 236 235 233 230 229 232 230 229 224 217 211 215 215 211 209 217
287 297 308 310 315 325 329 328 327 322 316 310 304 299 293 285 277 270 265 260 255 252 251 244 240 239 239 238 237 234 233 231 232 230 230 228 218 214 219 224 226 225 221
281 291 303 310 318 326 329 329 325 323 316 310 304 299 294 288 281 273 266 260 257 251 248 244 240 240 239 239 238 236 234 232 233 234 231 229 225 222 221 223 226 230 233
274 289 304 312 319 324 326 326 323 318 312 307 304 300 294 288 281 275 268 262 256 253 247 244 239 236 239 243 239 239 237 234 233 234 233 230 230 229 229 222 224 226 227
274 292 304 313 321 323 322 322 319 313 309 305 303 299 293 287 281 275 270 264 259 253 250 246 243 238 235 236 246 242 238 236 233 233 234 230 230 232 228 221 222 224 225
274 292 305 313 319 322 321 318 315 311 307 303 301 298 294 289 282 275 271 267 264 257 251 248 247 243 238 242 240 247 242 238 235 233 234 231 229 232 229 223 225 225 225
283 299 310 319 326 325 323 320 315 311 308 306 302 298 293 287 282 275 270 268 265 262 255 250 248 250 246 240 234 240 242 242 235 233 233 232 230 231 231 231 230 229 226
289 308 320 326 328 328 327 323 318 316 311 306 302 297 291 285 280 275 269 268 267 263 261 253 250 248 251 252 246 247 244 237 232 230 233 232 229 229 231 233 234 234 232
301 314 321 323 326 327 326 326 322 318 315 309 302 294 288 285 283 274 269 267 266 264 260 258 252 248 246 243 252 248 256 245 246 238 238 235 230 227 230 232 235 235 232
304 314 318 319 322 325 325 326 322 318 314 309 303 295 287 284 284 279 273 270 266 265 262 258 253 251 247 243 241 251 240 235 229 237 242 239 232 229 230 230 234 236 235
304 312 315 316 321 321 320 322 321 316 312 310 303 296 292 285 280 275 270 271 269 267 263 259 253 247 249 243 234 227 217 214 212 218 228 237 231 231 231 230 229 234 235
310 315 313 316 320 319 317 322 321 317 311 307 299 296 291 289 287 282 278 271 269 267 263 262 254 247 244 245 239 227 235 243 208 198 219 234 240 234 237 234 228 227 232
313 319 314 314 319 316 317 319 317 313 308 304 298 291 291 291 288 283 282 277 269 263 263 266 258 247 240 238 239 232 236 238 231 195 202 212 224 233 245 240 234 234 230
316 318 312 315 318 317 317 318 316 311 308 302 293 290 289 292 291 290 292 283 278 272 272 268 257 246 238 235 234 235 225 233 241 223 212 219 219 223 227 235 234 227 228